This demonstration page uses our WeatherBlox Daily Observations layout. Learn more.

Hourly Observations for November 19, 2016

Temp ( °F °C ) Dew Point ( °F °C ) Humidity (%) Winds ( mph kmh ) Pressure ( in mb ) Visibility ( mi km ) Precip ( " mm )
12:15 am 00:15 Clear 45 7 43 6 93 93 Calm 30.09 1019 10 16.09344 0 0
12:35 am 00:35 Clear 45 7 43 6 93 93 Calm 30.06 1018 10 16.09344 0 0
12:55 am 00:55 Clear 43 6 41 5 93 93 Calm 30.06 1018 10 16.09344 0 0
1:15 am 01:15 Clear 43 6 43 6 100 100 Calm 30.06 1018 10 16.09344 0 0
1:35 am 01:35 Clear 43 6 43 6 100 100 Calm 30.06 1018 10 16.09344 0 0
1:55 am 01:55 Clear 43 6 43 6 100 100 Calm 30.06 1018 10 16.09344 0 0
2:15 am 02:15 Clear 43 6 43 6 100 100 Calm 30.06 1018 10 16.09344 0 0
2:35 am 02:35 Clear 41 5 39 4 93 93 Calm 30.06 1018 10 16.09344 0 0
2:55 am 02:55 Clear 43 6 41 5 93 93 Calm 30.06 1018 10 16.09344 0 0
3:15 am 03:15 Clear 41 5 41 5 100 100 undefined N/A 30.06 1018 10 16.09344 0 0
3:35 am 03:35 Clear 41 5 41 5 100 100 undefined N/A 30.06 1018 10 16.09344 0 0
3:55 am 03:55 Clear 41 5 41 5 100 100 undefined N/A 30.03 1017 10 16.09344 0 0
4:15 am 04:15 Clear 37 3 37 3 100 100 undefined N/A 30.03 1017 10 16.09344 0 0
4:35 am 04:35 Clear 41 5 41 5 100 100 undefined N/A 30.03 1017 10 16.09344 0 0
4:55 am 04:55 Clear 37 3 37 3 100 100 undefined N/A 30.03 1017 10 16.09344 0 0
5:15 am 05:15 Clear 39 4 39 4 100 100 undefined N/A 30 1016 10 16.09344 0 0
5:35 am 05:35 Clear 41 5 41 5 100 100 undefined N/A 30 1016 10 16.09344 0 0
5:55 am 05:55 Clear 41 5 41 5 100 100 undefined N/A 30 1016 10 16.09344 0 0
6:15 am 06:15 Clear 39 4 39 4 100 100 Calm 30 1016 10 16.09344 0 0
6:35 am 06:35 Clear 37 3 37 3 100 100 undefined N/A 29.97 1015 10 16.09344 0 0
6:55 am 06:55 Clear 39 4 39 4 100 100 undefined N/A 29.97 1015 10 16.09344 0 0
7:15 am 07:15 Sunny 37 3 37 3 100 100 undefined N/A 29.97 1015 10 16.09344 0 0
7:35 am 07:35 Sunny 37 3 37 3 100 100 undefined N/A 29.97 1015 10 16.09344 0 0
7:55 am 07:55 Sunny 41 5 41 5 100 100 undefined N/A 29.94 1014 10 16.09344 0 0
8:15 am 08:15 Sunny 43 6 41 5 93 93 undefined N/A 29.94 1014 10 16.09344 0 0
8:35 am 08:35 Sunny 46 8 45 7 93 93 undefined N/A 29.94 1014 10 16.09344 0 0
8:55 am 08:55 Sunny 46 8 45 7 93 93 undefined N/A 29.94 1014 10 16.09344 0 0
9:15 am 09:15 Sunny 50 10 46 8 88 88 Calm 29.88 1012 10 16.09344 0 0
9:35 am 09:35 Sunny 52 11 46 8 82 82 SSE 5 7 29.88 1012 10 16.09344 0 0
9:55 am 09:55 Sunny 54 12 46 8 77 77 Calm 29.88 1012 10 16.09344 0 0
10:15 am 10:15 Sunny 55 13 46 8 72 72 S 7 11 29.85 1011 10 16.09344 0 0
10:35 am 10:35 Sunny 59 15 48 9 68 68 E 6 9 29.83 1010 10 16.09344 0 0
10:55 am 10:55 Sunny 59 15 48 9 68 68 ESE 5 7 29.83 1010 10 16.09344 0 0
11:15 am 11:15 Sunny 61 16 50 10 68 68 SE 3 6 29.8 1009 10 16.09344 0 0
11:35 am 11:35 Sunny 63 17 50 10 64 64 ESE 8 13 29.77 1008 10 16.09344 0 0
11:55 am 11:55 Sunny 64 18 50 10 60 60 SSE 8 13 29.74 1007 10 16.09344 0 0
12:15 pm 12:15 Sunny 66 19 50 10 56 56 S 6 9 29.74 1007 10 16.09344 0 0
12:35 pm 12:35 Sunny 68 20 50 10 53 53 S 7 11 29.74 1007 10 16.09344 0 0
12:55 pm 12:55 Sunny 68 20 50 10 53 53 SSE 6 9 29.71 1006 10 16.09344 0 0
1:15 pm 13:15 Sunny 68 20 50 10 53 53 SSW 5 7 29.71 1006 10 16.09344 0 0
1:35 pm 13:35 Mostly Cloudy 68 20 50 10 53 53 SSW 3 6 29.71 1006 10 16.09344 0 0
1:55 pm 13:55 Cloudy 68 20 52 11 56 56 W 18 30 29.74 1007 10 16.09344 0 0
2:15 pm 14:15 Cloudy with Haze 61 16 43 6 52 52 NW 33 54 29.77 1008 5 8.04672 0 0
2:35 pm 14:35 Cloudy 54 12 39 4 58 58 NW 37 59 29.8 1009 7 11.265408 0 0
2:55 pm 14:55 Cloudy 50 10 36 2 58 58 NW 39 63 29.83 1010 10 16.09344 0 0
3:15 pm 15:15 Cloudy 46 8 36 2 66 66 WNW 37 59 29.83 1010 10 16.09344 0 0
3:35 pm 15:35 Cloudy 46 8 36 2 66 66 NW 33 54 29.88 1012 10 16.09344 0 0
3:55 pm 15:55 Cloudy with Light Rain 45 7 37 3 76 76 NW 24 39 29.88 1012 10 16.09344 0 0
4:15 pm 16:15 Cloudy with Light Rain 43 6 37 3 81 81 NW 18 30 29.91 1013 10 16.09344 0 0
4:35 pm 16:35 Cloudy with Light Rain 43 6 37 3 81 81 NNW 20 31 29.91 1013 4 6.437376 0.01 0.254
4:55 pm 16:55 Cloudy with Light Rain 43 6 37 3 81 81 NW 15 24 29.91 1013 10 16.09344 0.01 0.254
5:15 pm 17:15 Cloudy 45 7 36 2 71 71 WNW 18 30 29.91 1013 10 16.09344 0 0
5:35 pm 17:35 Cloudy 45 7 36 2 71 71 NW 20 31 29.91 1013 10 16.09344 0 0
5:55 pm 17:55 Cloudy 45 7 34 1 66 66 NW 21 33 29.91 1013 10 16.09344 0 0
6:15 pm 18:15 Cloudy 45 7 34 1 66 66 NNW 18 30 29.91 1013 10 16.09344 0 0
6:35 pm 18:35 Cloudy 45 7 32 0 61 61 WNW 22 35 29.91 1013 10 16.09344 0 0
6:55 pm 18:55 Mostly Cloudy 43 6 32 0 66 66 WNW 23 37 29.91 1013 10 16.09344 0 0
7:15 pm 19:15 Mostly Cloudy 43 6 32 0 66 66 WNW 18 30 29.91 1013 10 16.09344 0 0
7:35 pm 19:35 Mostly Cloudy 43 6 32 0 66 66 NW 14 22 29.91 1013 10 16.09344 0 0
7:55 pm 19:55 Mostly Cloudy 43 6 32 0 66 66 NW 15 24 29.94 1014 10 16.09344 0 0
8:15 pm 20:15 Partly Cloudy 43 6 30 -1 61 61 WNW 25 41 29.94 1014 10 16.09344 0 0
8:35 pm 20:35 Clear 41 5 28 -2 61 61 WNW 20 31 29.94 1014 10 16.09344 0 0
8:55 pm 20:55 Clear 41 5 28 -2 61 61 WNW 22 35 29.94 1014 10 16.09344 0 0
9:15 pm 21:15 Clear 41 5 28 -2 61 61 WNW 17 28 29.94 1014 10 16.09344 0 0
9:35 pm 21:35 Partly Cloudy 41 5 28 -2 61 61 WNW 18 30 29.94 1014 10 16.09344 0 0
9:55 pm 21:55 Mostly Cloudy 41 5 28 -2 61 61 WNW 16 26 29.94 1014 10 16.09344 0 0
10:15 pm 22:15 Cloudy 41 5 28 -2 61 61 WNW 18 30 29.94 1014 10 16.09344 0 0
10:35 pm 22:35 Cloudy 41 5 28 -2 61 61 WNW 15 24 29.94 1014 10 16.09344 0 0
10:55 pm 22:55 Mostly Cloudy 41 5 28 -2 61 61 WNW 16 26 29.94 1014 10 16.09344 0 0
11:15 pm 23:15 Mostly Cloudy 41 5 28 -2 61 61 WNW 17 28 29.94 1014 10 16.09344 0 0
11:35 pm 23:35 Cloudy 41 5 28 -2 61 61 WNW 21 33 29.94 1014 10 16.09344 0 0
11:55 pm 23:55 Cloudy 39 4 28 -2 65 65 WNW 14 22 29.94 1014 10 16.09344 0 0

Powered by AerisWeather